Regional Weather Roundup
Issued by NWS Jackson, KY

Home | Current Version | Previous Version | Text Only | Print | Product List | Glossary Off
Versions: 1 2 3 4 5 6 7 8 9 10 11 12 13 14 15 16 17 18 19 20 21 22 23 24 25 26 27 28 29 30 31 32 33 34 35 36 37 38 39 40 41 42 43 44 45 46 47 48 49 50

184
ASUS43 KJKL 060710
RWRJKL

EAST KENTUCKY HOURLY WEATHER ROUNDUP
NATIONAL WEATHER SERVICE JACKSON KY
200 AM EST SAT FEB 06 2016

NOTE: "FAIR" INDICATES FEW OR NO CLOUDS BELOW 12,000 FEET WITH
NO SIGNIFICANT WEATHER AND/OR OBSTRUCTIONS TO VISIBILITY.

* THESE REPORTS ARE NOT UNDER NWS QUALITY CONTROL AND MAY NOT
  REPORT WEATHER SUCH AS PRECIPITATION AND FOG.

KYZ079-080-083-085-087-088-110-112-115-119-120-060800
...EASTERN KENTUCKY...

CITY           SKY/WX    TMP DP  RH WIND       PRES   REMARKS
JACKSON        PTCLDY    31  15  52 S5        30.34F WCI  26
LONDON         PTCLDY    27  19  72 CALM      30.35F
SOMERSET*      CLOUDY    27  23  86 CALM      30.38S
MONTICELLO*    CLOUDY    26  20  77 W10       30.38S WCI  16
WILLIAMSBURG*  MOSUNNY   28  19  69 CALM      30.36F
MIDDLESBORO*   PTCLDY    26  23  87 NW3       30.38F
HARLAN APT*      N/A     28  23  80 CALM      30.35F
HAZARD APT*    SUNNY    N/A N/A N/A CALM      30.35F
BLACK MTN*       N/A     23  10  58 SW7         N/A  WCI  15
BIG SANDY*     CLOUDY    32  18  56 S5        30.35F WCI  27
MOREHEAD APT*  CLOUDY    30  18  59 S6        30.35F WCI  24
$$

KYZ035-036-041-042-044-050-067-078-099-060800
...CENTRAL KENTUCKY...

CITY           SKY/WX    TMP DP  RH WIND       PRES   REMARKS
MT STERLING*   CLOUDY    32  19  59 SW6       30.35S WCI  26
DANVILLE*      CLOUDY    32  19  59 SW6       30.35F WCI  26
RICHMOND*      CLOUDY    32  16  51 S6        30.33F WCI  26
LEXINGTON      CLOUDY    31  18  58 S7        30.33F WCI  24
FRANKFORT      CLOUDY    30  18  60 NW3       30.33S
$$

KYZ091>093-OHZ055-061-077-WVZ005-015-034-035-042-060800
...SOUTHERN OHIO/WEST VIRGINIA...

CITY           SKY/WX    TMP DP  RH WIND       PRES   REMARKS
COVINGTON      CLOUDY    28  24  85 NW3       30.32F
COLUMBUS       CLOUDY    31  18  58 S3        30.30F
DAYTON         CLOUDY    25  23  92 W7        30.32S WCI  17
WILMINGTON     CLOUDY    29  19  66 W6        30.30F WCI  23
HUNTINGTON       N/A     28  18  66 S3        30.35F
CHARLESTON       N/A     27  19  72 CALM      30.36S
PINEVILLE*       N/A     23  19  83 MISG      30.40S
BECKLEY          N/A     22  14  71 S5        30.31F WCI  16
$$

VAZ002-007-008-TNZ017-027-036-066-071-060800
...SOUTHWEST VIRGINIA/EAST TENNESSEE...

CITY           SKY/WX    TMP DP  RH WIND       PRES   REMARKS
BRISTOL        CLOUDY    24  21  88 CALM      30.37F
KNOXVILLE      CLOUDY    30  22  72 CALM      30.38F
OAK RIDGE      PTCLDY    29  23  78 CALM      30.39F
CROSSVILLE     PTCLDY    30  17  58 CALM      30.34F
NASHVILLE      MOCLDY    33  22  63 S3        30.38S
$$

...KEY TO REMARKS...
VSB - VISIBILITY IN MILES
WCI - WIND CHILL INDEX
HX  - HEAT INDEX

$$




USA.gov is the U.S. government's official web portal to all federal, state and local government web resources and services.